Tracking 23752 objects as of 23-Oct-2021
HD Live streaming from Space Station
objects crossing your sky now

UNHA 3 R/B

Track UNHA 3 R/B now!
10-day predictions


NORAD ID: 41333
Int'l Code: 2016-009B
Perigee: 421.3 km
Apogee: 472.7 km
Inclination: 97.3 °
Period: 93.4 minutes
Semi major axis: 6817 km
RCS: Unknown
Launch date: February 7, 2016
Source: North Korea (NKOR)
Launch site: Yunsong, DPRK (YUN)

Note: This is a ROCKET BODY
aabbcc
Your satellite tracking list
Your tracking list is empty




NASA's NSSDC Master Catalog

Two Line Element Set (TLE):
1 41333U 16009B   21295.84043959  .00004347  00000-0  10111-3 0  9996
2 41333  97.3471  30.4721 0037733  50.6040 309.8538 15.42120027320298
Source of the keplerian elements: AFSPC